Zurück zum Katalog

DELTA 4 R/B

AktivMEO
NORAD 57100·ROCKET BODY·🇺🇸 United States

Gestartet Jun 22, 2023 von Cape Canaveral Space Force Station

Loading…

Nächste Überflüge (nächste 24 Stunden)

TLE

AktuellSource: Space-Track

Epoche: Sep 13, 2026, 13:25 UTC

1 57100U 23089B   26256.55930172 -.00000225  00000-0  00000-0 0  9998
2 57100   2.3425 174.5311 0178009  83.6447 278.2980  0.96427099  8303

Verfolge DELTA 4 R/B in Echtzeit mit AllMySat

Download on the App Store